TimeCDT,TemperatureF,Dew PointF,Humidity,Sea Level PressureIn,VisibilityMPH,Wind Direction,Wind SpeedMPH,Gust SpeedMPH,PrecipitationIn,Events,Conditions,WindDirDegrees,DateUTC
12:15 AM,64.4,49.3,58,29.97,10.0,SSE,5.8,-,N/A,,Overcast,150,2013-05-08 05:15:00
12:35 AM,63.5,49.5,60,29.97,10.0,SE,6.9,-,N/A,,Overcast,140,2013-05-08 05:35:00
12:55 AM,63.0,49.8,62,29.97,10.0,SE,4.6,-,N/A,,Overcast,140,2013-05-08 05:55:00
1:15 AM,61.9,50.0,65,29.96,10.0,SE,5.8,-,N/A,,Scattered Clouds,140,2013-05-08 06:15:00
1:35 AM,61.7,49.8,65,29.96,10.0,SSE,4.6,-,N/A,,Clear,160,2013-05-08 06:35:00
1:55 AM,61.0,49.6,66,29.96,10.0,SSE,6.9,-,N/A,,Clear,160,2013-05-08 06:55:00
2:15 AM,61.3,49.6,65,29.96,10.0,SSE,8.1,-,N/A,,Mostly Cloudy,160,2013-05-08 07:15:00
2:35 AM,61.0,49.6,66,29.95,10.0,South,8.1,-,N/A,,Overcast,170,2013-05-08 07:35:00
2:55 AM,61.3,49.6,65,29.94,10.0,South,8.1,-,N/A,,Overcast,170,2013-05-08 07:55:00
3:15 AM,61.0,50.0,67,29.94,10.0,SSE,8.1,-,N/A,,Mostly Cloudy,160,2013-05-08 08:15:00
3:35 AM,61.5,50.9,68,29.94,10.0,SSE,8.1,-,N/A,Rain,Light Rain,160,2013-05-08 08:35:00
3:55 AM,61.2,50.4,68,29.93,10.0,SSE,6.9,-,N/A,,Overcast,160,2013-05-08 08:55:00
4:15 AM,60.8,50.5,69,29.93,10.0,SSE,5.8,-,N/A,,Overcast,150,2013-05-08 09:15:00
4:35 AM,59.9,50.9,72,29.94,10.0,South,6.9,-,N/A,,Overcast,170,2013-05-08 09:35:00
4:55 AM,59.2,51.1,74,29.94,10.0,SSE,6.9,-,N/A,,Overcast,160,2013-05-08 09:55:00
5:15 AM,59.5,51.1,74,29.94,10.0,SSE,4.6,-,N/A,,Overcast,150,2013-05-08 10:15:00
5:35 AM,58.3,52.3,81,29.94,10.0,SE,4.6,-,N/A,Rain,Light Rain,140,2013-05-08 10:35:00
5:55 AM,57.9,52.5,82,29.95,10.0,SSE,4.6,-,N/A,,Overcast,150,2013-05-08 10:55:00
6:15 AM,58.1,52.5,82,29.94,10.0,SE,3.5,-,N/A,,Scattered Clouds,130,2013-05-08 11:15:00
6:35 AM,58.1,52.7,82,29.95,10.0,SSE,4.6,-,N/A,,Mostly Cloudy,160,2013-05-08 11:35:00
6:55 AM,58.3,52.7,82,29.96,10.0,SE,4.6,-,N/A,,Overcast,140,2013-05-08 11:55:00
7:15 AM,58.3,53.1,83,29.97,10.0,SE,5.8,-,N/A,,Overcast,130,2013-05-08 12:15:00
7:35 AM,58.1,53.4,84,29.97,10.0,SE,5.8,-,N/A,Rain,Light Rain,140,2013-05-08 12:35:00
7:55 AM,58.6,53.8,84,29.97,10.0,SSE,6.9,-,N/A,,Overcast,150,2013-05-08 12:55:00
8:15 AM,59.4,54.5,84,29.97,10.0,SSE,8.1,-,N/A,,Mostly Cloudy,160,2013-05-08 13:15:00
8:35 AM,59.9,54.7,83,29.97,10.0,SSE,10.4,-,N/A,,Scattered Clouds,160,2013-05-08 13:35:00
8:55 AM,62.1,56.1,81,29.97,10.0,SSE,11.5,-,N/A,,Mostly Cloudy,160,2013-05-08 13:55:00
9:15 AM,63.1,55.8,77,29.97,10.0,South,12.7,-,N/A,,Mostly Cloudy,170,2013-05-08 14:15:00
9:35 AM,63.5,55.4,75,29.97,10.0,South,15.0,-,N/A,,Overcast,180,2013-05-08 14:35:00
9:55 AM,64.2,56.1,75,29.96,10.0,South,11.5,-,N/A,,Mostly Cloudy,170,2013-05-08 14:55:00
10:15 AM,65.8,55.9,70,29.97,10.0,South,11.5,16.1,N/A,,Scattered Clouds,170,2013-05-08 15:15:00
10:35 AM,66.6,55.9,69,29.98,10.0,South,13.8,-,N/A,,Scattered Clouds,190,2013-05-08 15:35:00
10:55 AM,66.2,55.9,69,29.98,10.0,South,11.5,18.4,N/A,,Overcast,180,2013-05-08 15:55:00
11:15 AM,65.3,55.9,72,29.98,10.0,South,13.8,-,N/A,,Overcast,170,2013-05-08 16:15:00
11:35 AM,64.4,56.5,75,29.98,10.0,South,8.1,-,N/A,,Light Drizzle,190,2013-05-08 16:35:00
11:55 AM,64.4,56.7,76,29.98,10.0,South,5.8,-,N/A,Rain,Light Rain,190,2013-05-08 16:55:00
12:15 PM,64.9,56.8,75,29.98,10.0,SSW,4.6,-,N/A,,Overcast,200,2013-05-08 17:15:00
12:35 PM,65.3,56.8,74,29.98,10.0,South,6.9,-,N/A,Rain,Light Rain,180,2013-05-08 17:35:00
12:55 PM,66.7,56.3,69,29.97,10.0,South,6.9,-,N/A,,Overcast,170,2013-05-08 17:55:00
1:15 PM,68.2,55.8,64,29.97,10.0,South,4.6,-,N/A,,Overcast,180,2013-05-08 18:15:00
1:35 PM,67.6,55.2,64,29.97,10.0,SSW,3.5,-,N/A,,Mostly Cloudy,210,2013-05-08 18:35:00
1:55 PM,67.1,55.0,65,29.97,10.0,SSW,6.9,-,N/A,,Overcast,200,2013-05-08 18:55:00
2:15 PM,67.1,55.4,66,29.97,10.0,SSW,6.9,-,N/A,,Overcast,200,2013-05-08 19:15:00
2:35 PM,67.5,55.8,66,29.97,10.0,South,3.5,-,N/A,,Overcast,180,2013-05-08 19:35:00
2:55 PM,68.2,55.6,64,29.97,10.0,Calm,Calm,-,N/A,,Overcast,0,2013-05-08 19:55:00
3:35 PM,71.1,54.7,56,29.95,10.0,Calm,Calm,-,N/A,,Mostly Cloudy,0,2013-05-08 20:35:00
3:55 PM,70.2,53.8,56,29.94,10.0,Calm,Calm,-,N/A,,Mostly Cloudy,0,2013-05-08 20:55:00
4:15 PM,69.8,54.0,57,29.93,10.0,Calm,Calm,-,N/A,,Overcast,0,2013-05-08 21:15:00
4:35 PM,70.3,53.8,56,29.93,10.0,North,3.5,-,N/A,,Overcast,10,2013-05-08 21:35:00
4:55 PM,71.2,54.9,56,29.92,10.0,North,5.8,-,N/A,,Scattered Clouds,360,2013-05-08 21:55:00
5:15 PM,71.4,54.1,54,29.91,10.0,ENE,6.9,-,N/A,,Scattered Clouds,60,2013-05-08 22:15:00
5:35 PM,70.9,53.4,54,29.91,10.0,Calm,Calm,-,N/A,,Mostly Cloudy,0,2013-05-08 22:35:00
5:55 PM,70.3,53.6,55,29.91,10.0,NE,8.1,-,N/A,,Overcast,50,2013-05-08 22:55:00
6:15 PM,69.4,54.5,59,29.91,10.0,NE,9.2,-,N/A,,Overcast,40,2013-05-08 23:15:00
6:35 PM,69.8,54.1,57,29.91,10.0,NE,8.1,-,N/A,,Overcast,40,2013-05-08 23:35:00
6:55 PM,70.2,54.7,58,29.91,10.0,NE,6.9,-,N/A,,Mostly Cloudy,40,2013-05-08 23:55:00
7:15 PM,69.4,54.7,59,29.91,10.0,NE,8.1,-,N/A,,Overcast,40,2013-05-09 00:15:00
7:35 PM,68.4,54.5,61,29.90,10.0,NE,5.8,-,N/A,,Mostly Cloudy,40,2013-05-09 00:35:00
7:55 PM,67.1,55.0,65,29.90,10.0,NE,6.9,-,N/A,,Mostly Cloudy,40,2013-05-09 00:55:00
8:15 PM,66.6,55.4,67,29.90,10.0,NE,6.9,-,N/A,,Overcast,50,2013-05-09 01:15:00
8:35 PM,65.5,55.4,70,29.91,10.0,NE,6.9,-,N/A,,Mostly Cloudy,40,2013-05-09 01:35:00
8:55 PM,64.2,55.4,73,29.90,10.0,NE,6.9,-,N/A,,Scattered Clouds,40,2013-05-09 01:55:00
9:15 PM,63.7,55.8,75,29.90,10.0,NE,5.8,-,N/A,,Scattered Clouds,40,2013-05-09 02:15:00
9:35 PM,63.7,56.3,77,29.90,10.0,NNE,5.8,-,N/A,,Overcast,30,2013-05-09 02:35:00
10:15 PM,63.9,56.8,78,29.91,10.0,NE,6.9,-,N/A,,Overcast,50,2013-05-09 03:15:00
10:35 PM,63.1,56.3,78,29.91,10.0,ENE,6.9,-,N/A,,Mostly Cloudy,70,2013-05-09 03:35:00
11:35 PM,62.6,56.5,80,29.90,10.0,North,8.1,-,N/A,Rain,Light Rain,10,2013-05-09 04:35:00
11:55 PM,62.1,57.2,84,29.90,10.0,Calm,Calm,-,N/A,,Overcast,0,2013-05-09 04:55:00